Location: Newark
(50.0821°N, 8.2414°E)
Time: 06:45:06
(UTC+00:00)

ISS - Pass Details

Date: 27 July 2019
Orbit: 410 x 421 km, 51.6° (Epoch: 22 August)

Event Time Altitude Azimuth Distance (km) Brightness Sun altitude
Rises 19:49:17 0° 276° (W) 2,374 1.2 -5.0°
Reaches altitude 10° 19:51:24 10° 279° (W) 1,508 0.2 -5.3°
Maximum altitude 19:54:46 65° 1° (N) 468 -3.3 -5.7°
Drops below altitude 10° 19:58:08 10° 85° (E) 1,502 -1.4 -6.1°
Enters shadow 19:59:48 - 88° (E) 2,185 -0.6 -6.3°
